ATLAS 5 CENTAUR DEB, 45474

Orbit data source: Space-Track

ATLAS 5 CENTAUR DEB, 45474 is space debris in HEO originally from a launch on Wed, 17 Oct 2018 UTC launched from the Air Force Eastern Test Range (AFETR). Debris objects in space refer to the collection of defunct objects orbiting the Earth. Examples of debris include non-operational satellites, rocket bodies, and fragments generated from explosions, collisions, or faulty payload assembly.

Loading next visibility...
Identifier
45474, 2018-079BW
Orbit
HEO
Country
Flag of USUS
Related business
Flag of USUnited Launch Alliance/Lockheed Martin (US)
Manufacturer
ULA Decatur
Mission
Spacecraft
Bus & Motor
Unknown
Mass
Unknown
Launch date (UTC)
2018-10-17 (7 years ago)
Launch vehicle
Unknown
Launch site
Air Force Eastern Test Range (AFETR)
Object type
Payload
Rocket body
Debris
Shape & HBR
Unknown
Radar Cross Section
RCS unknown

Expand to show TLE details & history
Last TLE update: 5 days ago

TLE from 5 days ago
0 ATLAS 5 CENTAUR DEB
1 45474U 18079BW  25253.31527974 -.00000071  00000-0  00000-0 0  9993
2 45474  12.5749  83.1523 4497940 213.4724 107.7813  1.74204599 38117
Epoch: 2025-09-10T07:34Z
TLE epoch observation values (Epoch: 2025-09-10T07:34:00.169Z)
Latitude
-0.00003°
Longitude
-19.87207°
Altitude
30,847.488 km
Speed
2.785 km/s
True Right ascension
05h 32m 53s
True Declination
0° 00' 00"
Sunlit
Object was in daylight at epoch
Visualization orbit readout
Latitude
Unknown
Longitude
Unknown
Altitude
Unknown
Speed
Unknown
Apparent Right ascension
Unknown
Apparent Declination
Unknown
Sunlit
N/A
Visualization observer readout
Local Sidereal Time
01:32:38
Azimuth
Unknown
Elevation
Unknown
Doppler factor
Unknown
Orbital elements
Apogee altitude
35,924.226 km
Perigee altitude
9,675.877 km
Semi-major axis
29,178.189 km
Eccentricity
0.44979
Inclination
12.5749°
RAAN
83.1523°
Arg. of periapsis
213.4724°
True anomaly
146.60175°
Mean anomaly
107.7813°
Eccentric anomaly
128.06997°
Mean motion
0.43547 °/min
Orbital period
826.7 mins
BSTAR
0
Loading maneuver chart data...
Computing Atmospheric mass density...

Documentation

Showing up to 5 results
|